Вернуться в каталог

FENGYUN 1C DEB

АктивенSSO
NORAD 30765·DEBRIS·🇨🇳 China

Запущен May 10, 1999 с Taiyuan Satellite Launch Center

Loading…

Ближайшие Пролёты (ближайшие 24 часа)

TLE

СвежийSource: Space-Track

Эпоха: Sep 14, 2026, 15:11 UTC

1 30765U 99025AUB 26257.63301279  .00000844  00000-0  44465-3 0  9991
2 30765  98.7617 304.0946 0068643 142.0037  12.0085 14.15418713  7010

Отслеживайте FENGYUN 1C DEB в реальном времени с AllMySat

Download on the App Store